User: anonymous   Login
Location: Thompson
(55.7500°N, 97.8670°W)
Time: 10:18:54
(UTC-05:00)
Language:

Cosmos 1833 Rocket - Orbit

View from above orbital plane
View from above orbital plane
View from above satellite
View from above satellite

Ground track
Ground track

The orbit data is extracted from the following two-line orbital elements,

1 17590U 87027B   15185.51155083 -.00000219  00000-0 -85787-4 0  9997
2 17590 071.0016 212.7440 0007053 299.3643 060.6775 14.16700065463048
Epoch (UTC): 04 July 2015 12:16:37
Eccentricity: 0.0007053
inclination: 71.0016°
perigee height: 831 km
apogee height: 841 km
right ascension of ascending node: 212.7440°
argument of perigee: 299.3643°
revolutions per day: 14.16700065
mean anomaly at epoch: 60.6775°
orbit number at epoch: 46304

The dashed part of the orbit path shows where the satellite is in the earth's shadow,  

DLR